{"data":{"norad_id":62142,"intl_designator":"2024-224D","name":"STARLINK-32454","alt_names":[],"object_type":"PAYLOAD","status":"ACTIVE","operator":null,"country":"US","launch_date":"2024-11-30","launch_site_code":"AFETR","launch_vehicle":null,"mission":null,"orbit_class":"UNKNOWN","rcs_meters":null,"size_class":null,"mass_kg":null,"dimensions":null,"purposes":["comms"],"wikipedia_slug":null,"has_3d_model":false,"image_url":null,"decayed_at":null,"tle_current":{"epoch":"2026-05-25T04:42:42.270912Z","epoch_age_seconds":61231,"freshness":"FRESH","line1":"1 62142U 24224D   26145.19632258  .00017568  00000+0  64624-3 0  9994","line2":"2 62142  43.0004  93.5622 0001245 266.6656  93.4053 15.27588348 84090","mean_motion":15.27588348,"eccentricity":0.0001245,"inclination_deg":43.0004,"raan_deg":93.5622,"arg_perigee_deg":266.6656,"mean_anomaly_deg":93.4053,"bstar":0.00064624,"rev_number":8409,"period_min":94.266233562551,"perigee_km":482.16988468146,"apogee_km":483.87831379517,"semimajor_km":6861.1610992383,"source":"CELESTRAK","updated_at":"2026-05-25T13:38:19.569153Z"}}}